Location: Columbia
(38.9520°N, 92.3340°W)
Time: 06:52:01
(UTC-06:00)

Cosmos 1603 - Visible Passes

Search period start: 19 January 2017 00:00
Search period end: 29 January 2017 00:00
Orbit: 833 x 858 km, 71.0° (Epoch: 18 January)

Date Brightness Start Highest point End Pass type
(mag) Time Alt. Az. Time Alt. Az. Time Alt. Az.
19 Jan 5.1 05:09:07 12° N 05:13:53 35° ENE 05:19:02 10° SE visible
19 Jan 4.5 06:53:01 10° NW 06:57:52 30° WSW 07:02:44 10° SSW visible
19 Jan 5.0 19:58:56 10° SSW 20:01:43 31° SSW 20:01:43 31° SSW visible
20 Jan 5.1 04:56:06 16° N 04:59:57 34° ENE 05:05:04 10° SE visible
20 Jan 4.5 06:39:03 10° NW 06:43:58 32° WSW 06:48:53 10° SSW visible
20 Jan 4.0 19:45:01 10° SSW 19:49:22 56° SSW 19:49:22 56° SSW visible
21 Jan 5.2 04:43:10 21° NNE 04:46:01 33° ENE 04:51:05 10° ESE visible
21 Jan 4.4 06:25:07 10° NW 06:30:03 33° WSW 06:35:01 10° SSW visible
21 Jan 3.5 19:31:06 10° SSW 19:36:42 84° ESE 19:36:59 80° NE visible
21 Jan 6.5 21:18:29 10° W 21:18:57 11° W 21:18:57 11° W visible
22 Jan 5.2 04:30:21 27° NNE 04:32:05 32° ENE 04:37:06 10° ESE visible
22 Jan 4.3 06:12:18 16° NW 06:16:08 34° WSW 06:21:10 10° SSW visible
22 Jan 3.5 19:17:11 10° SSW 19:22:47 82° ESE 19:24:34 45° NNE visible
22 Jan 6.3 21:04:25 10° W 21:06:32 14° WNW 21:06:32 14° WNW visible
23 Jan 5.2 04:17:38 31° NE 04:18:08 31° ENE 04:23:08 10° ESE visible
23 Jan 4.3 05:59:36 23° WNW 06:02:14 35° WSW 06:07:18 10° SSW visible
23 Jan 3.5 19:03:16 10° SSW 19:08:52 79° ESE 19:12:04 27° NNE visible
23 Jan 6.1 20:50:21 10° W 20:53:39 16° NW 20:54:02 16° NW visible
24 Jan 5.4 04:05:03 29° ENE 04:05:03 29° ENE 04:09:09 10° ESE visible
24 Jan 4.2 05:47:01 32° WNW 05:48:19 36° WSW 05:53:26 10° S visible
24 Jan 3.6 18:49:21 10° SSW 18:54:56 76° ESE 18:59:29 16° NNE visible
24 Jan 6.1 20:36:18 10° W 20:39:42 16° NW 20:41:26 14° NNW visible
25 Jan 5.8 03:52:33 22° E 03:52:33 22° E 03:55:09 10° ESE visible
25 Jan 4.2 05:34:31 37° WSW 05:34:31 37° WSW 05:39:34 10° S visible
25 Jan 3.6 18:35:26 10° SSW 18:41:01 74° ESE 18:46:37 10° NNE visible
25 Jan 6.1 20:22:15 10° W 20:25:44 17° NW 20:28:45 11° NNW visible
26 Jan 6.2 03:40:07 15° ESE 03:40:07 15° ESE 03:41:10 10° ESE visible
26 Jan 4.6 05:22:05 32° SW 05:22:05 32° SW 05:25:42 10° S visible
26 Jan 3.6 18:21:32 10° SSW 18:27:06 71° ESE 18:32:41 10° NNE visible
26 Jan 6.1 20:08:12 10° W 20:11:47 17° NW 20:15:24 10° NNW visible
27 Jan 5.2 05:09:43 22° SSW 05:09:43 22° SSW 05:11:49 10° S visible
27 Jan 3.7 18:07:37 10° SSW 18:13:10 69° ESE 18:18:44 10° NNE visible
27 Jan 6.1 19:54:09 10° W 19:57:50 18° NW 20:01:32 10° N visible
28 Jan 5.8 04:57:22 13° S 04:57:22 13° S 04:57:57 10° S visible
28 Jan 3.7 17:53:43 10° S 17:59:15 67° ESE 18:04:49 10° NNE visible
28 Jan 6.1 19:40:07 10° W 19:43:53 18° NW 19:47:40 10° N visible
